| time (UTC) | temp F | wind direction | speed MPH | gust MPH | rain 1hr in | rain 24hr in | rain mn in | humidity % | barometer mb |
| 20260902202004 | 60 | 90 | 1.0 | 3.0 | 0.00 | 0.07 | 0.07 | 71 | 1015.0 |
| 20260902201504 | 59 | 69 | 1.0 | 3.0 | 0.00 | 0.07 | 0.07 | 73 | 1015.0 |
| 20260902201003 | 59 | 113 | 1.0 | 3.0 | 0.00 | 0.07 | 0.07 | 71 | 1015.1 |
| 20260902200503 | 58 | 98 | 0.0 | 3.0 | 0.00 | 0.07 | 0.07 | 74 | 1015.2 |
| 20260902200004 | 58 | 84 | 0.0 | 3.0 | 0.00 | 0.07 | 0.07 | 74 | 1015.2 |
| 20260902195504 | 58 | 125 | 0.0 | 1.0 | 0.00 | 0.07 | 0.07 | 74 | 1015.3 |
| 20260902195004 | 57 | 141 | 0.0 | 2.0 | 0.00 | 0.07 | 0.07 | 75 | 1015.4 |
| 20260902194004 | 57 | 95 | 1.0 | 2.0 | 0.00 | 0.07 | 0.07 | 78 | 1015.6 |
| 20260902193504 | 57 | 129 | 0.0 | 2.0 | 0.00 | 0.07 | 0.07 | 77 | 1015.6 |
| 20260902193003 | 56 | 101 | 0.0 | 3.0 | 0.00 | 0.07 | 0.07 | 83 | 1015.7 |
| 20260902192504 | 55 | 97 | 0.0 | 2.0 | 0.00 | 0.07 | 0.07 | 80 | 1015.7 |
| 20260902192004 | 55 | 91 | 0.0 | 2.0 | 0.00 | 0.07 | 0.07 | 83 | 1015.8 |
| 20260902191504 | 55 | 125 | 0.0 | 2.0 | 0.00 | 0.07 | 0.07 | 86 | 1015.9 |
| 20260902191004 | 54 | 134 | 0.0 | 2.0 | 0.00 | 0.07 | 0.07 | 85 | 1015.9 |
| 20260902190504 | 54 | 117 | 0.0 | 3.0 | 0.00 | 0.07 | 0.07 | 88 | 1015.9 |
| 20260902190004 | 54 | 107 | 0.0 | 3.0 | 0.00 | 0.07 | 0.07 | 89 | 1016.0 |
| 20260902185504 | 53 | 139 | 0.0 | 2.0 | 0.00 | 0.07 | 0.07 | 88 | 1016.0 |
| 20260902185004 | 53 | 146 | 0.0 | 2.0 | 0.00 | 0.07 | 0.07 | 90 | 1016.1 |
| 20260902184504 | 53 | 135 | 0.0 | 2.0 | 0.00 | 0.07 | 0.07 | 90 | 1016.0 |
| 20260902184004 | 52 | 137 | 0.0 | 1.0 | 0.00 | 0.07 | 0.07 | 91 | 1016.0 |
| 20260902183504 | 52 | 138 | 0.0 | 1.0 | 0.00 | 0.07 | 0.07 | 91 | 1016.0 |
| 20260902183004 | 52 | 168 | 0.0 | 1.0 | 0.00 | 0.07 | 0.07 | 92 | 1016.0 |
| 20260902182504 | 52 | 165 | 0.0 | 2.0 | 0.00 | 0.07 | 0.07 | 91 | 1016.0 |
| 20260902182004 | 52 | 159 | 0.0 | 1.0 | 0.00 | 0.07 | 0.07 | 92 | 1016.0 |
| 20260902181504 | 51 | 163 | 0.0 | 1.0 | 0.00 | 0.07 | 0.07 | 91 | 1015.9 |
| 20260902181004 | 52 | 173 | 0.0 | 0.0 | 0.00 | 0.07 | 0.07 | 92 | 1015.9 |
| 20260902180503 | 51 | 142 | 0.0 | 0.0 | 0.00 | 0.07 | 0.07 | 93 | 1015.9 |
| 20260902180006 | 51 | 143 | 0.0 | 1.0 | 0.00 | 0.07 | 0.07 | 92 | 1015.9 |
| 20260902175004 | 51 | 134 | 0.0 | 0.0 | 0.00 | 0.07 | 0.07 | 92 | 1016.0 |
| 20260902174503 | 50 | 117 | 0.0 | 0.0 | 0.00 | 0.07 | 0.07 | 92 | 1016.0 |
| 20260902174003 | 50 | 123 | 0.0 | 1.0 | 0.01 | 0.07 | 0.07 | 92 | 1015.9 |
| 20260902173504 | 50 | 127 | 0.0 | 2.0 | 0.01 | 0.07 | 0.07 | 92 | 1016.0 |
| 20260902173004 | 50 | 134 | 0.0 | 2.0 | 0.01 | 0.07 | 0.07 | 92 | 1016.0 |
| 20260902172004 | 50 | 140 | 0.0 | 3.0 | 0.02 | 0.07 | 0.07 | 92 | 1016.0 |
| 20260902171503 | 49 | 147 | 0.0 | 2.0 | 0.02 | 0.07 | 0.07 | 92 | 1016.0 |
| 20260902171004 | 49 | 123 | 0.0 | 2.0 | 0.03 | 0.07 | 0.07 | 92 | 1015.6 |
| 20260902170504 | 49 | 107 | 0.0 | 3.0 | 0.03 | 0.07 | 0.07 | 92 | 1015.4 |
| 20260902165503 | 49 | 128 | 2.0 | 3.0 | 0.04 | 0.07 | 0.07 | 91 | 1015.3 |
| 20260902165004 | 49 | 124 | 2.0 | 6.0 | 0.05 | 0.07 | 0.07 | 90 | 1015.1 |
| 20260902164504 | 49 | 114 | 3.0 | 6.0 | 0.05 | 0.07 | 0.07 | 90 | 1015.0 |
| 20260902164004 | 49 | 106 | 3.0 | 7.0 | 0.04 | 0.06 | 0.06 | 90 | 1015.2 |
| 20260902163503 | 50 | 109 | 2.0 | 6.0 | 0.04 | 0.06 | 0.06 | 89 | 1015.7 |
| 20260902163004 | 50 | 135 | 1.0 | 5.0 | 0.04 | 0.06 | 0.06 | 89 | 1015.8 |
| 20260902162004 | 51 | 93 | 0.0 | 2.0 | 0.04 | 0.05 | 0.05 | 90 | 1015.6 |
| 20260902161503 | 51 | 128 | 0.0 | 1.0 | 0.04 | 0.05 | 0.05 | 90 | 1015.7 |
| 20260902161004 | 51 | 88 | 1.0 | 6.0 | 0.03 | 0.04 | 0.04 | 89 | 1015.6 |
| 20260902160504 | 51 | 120 | 2.0 | 6.0 | 0.03 | 0.04 | 0.04 | 88 | 1015.9 |
| 20260902160007 | 52 | 126 | 1.0 | 3.0 | 0.03 | 0.03 | 0.03 | 87 | 1016.1 |
| 20260902155004 | 53 | 140 | 0.0 | 0.0 | 0.02 | 0.02 | 0.02 | 84 | 1016.2 |
| 20260902154503 | 54 | 232 | 0.0 | 0.0 | 0.02 | 0.02 | 0.02 | 83 | 1016.0 |
| 20260902153004 | 54 | 226 | 0.0 | 3.0 | 0.02 | 0.02 | 0.02 | 81 | 1015.7 |
| 20260902152504 | 54 | 229 | 0.0 | 2.0 | 0.02 | 0.02 | 0.02 | 81 | 1015.6 |
| 20260902152004 | 54 | 231 | 0.0 | 2.0 | 0.01 | 0.01 | 0.01 | 81 | 1015.5 |
| 20260902151504 | 54 | 226 | 0.0 | 2.0 | 0.01 | 0.01 | 0.01 | 80 | 1015.4 |
| 20260902151004 | 55 | 233 | 0.0 | 2.0 | 0.01 | 0.01 | 0.01 | 79 | 1015.4 |
| 20260902150504 | 55 | 239 | 0.0 | 2.0 | 0.01 | 0.01 | 0.01 | 78 | 1015.4 |
| 20260902150004 | 55 | 246 | 0.0 | 2.0 | 0.00 | 0.00 | 0.00 | 77 | 1015.5 |
| 20260902145505 | 55 | 230 | 0.0 | 2.0 | 0.00 | 0.00 | 0.00 | 76 | 1015.5 |
| 20260902145003 | 55 | 224 | 0.0 | 1.0 | 0.00 | 0.00 | 0.00 | 75 | 1015.5 |
| 20260902144504 | 55 | 246 | 0.0 | 1.0 | 0.00 | 0.00 | 0.00 | 73 | 1015.3 |
| 20260902144004 | 55 | 263 | 0.0 | 2.0 | 0.00 | 0.00 | 0.00 | 73 | 1015.3 |
| 20260902143504 | 55 | 307 | 0.0 | 2.0 | 0.00 | 0.00 | 0.00 | 73 | 1015.3 |
| 20260902142004 | 55 | 311 | 0.0 | 1.0 | 0.00 | 0.00 | 0.00 | 71 | 1015.0 |
| 20260902141004 | 55 | 308 | 0.0 | 0.0 | 0.00 | 0.00 | 0.00 | 70 | 1014.7 |
| 20260902135504 | 54 | 289 | 0.0 | 1.0 | 0.00 | 0.00 | 0.00 | 68 | 1014.9 |
| 20260902135004 | 54 | 238 | 0.0 | 0.0 | 0.00 | 0.00 | 0.00 | 67 | 1015.0 |
| 20260902134504 | 54 | 302 | 0.0 | 1.0 | 0.00 | 0.00 | 0.00 | 67 | 1014.8 |
| 20260902134004 | 53 | 136 | 0.0 | 2.0 | 0.00 | 0.00 | 0.00 | 68 | 1014.8 |
| 20260902133504 | 53 | 134 | 0.0 | 2.0 | 0.00 | 0.00 | 0.00 | 69 | 1014.7 |
| 20260902133004 | 53 | 78 | 0.0 | 0.0 | 0.00 | 0.00 | 0.00 | 70 | 1014.1 |
| 20260902132504 | 53 | 12 | 0.0 | 2.0 | 0.00 | 0.00 | 0.00 | 70 | 1013.4 |
| 20260902132003 | 53 | 320 | 1.0 | 3.0 | 0.00 | 0.00 | 0.00 | 70 | 1013.2 |
| 20260902131504 | 52 | 312 | 3.0 | 5.0 | 0.00 | 0.00 | 0.00 | 71 | 1013.1 |
| 20260902131003 | 53 | 317 | 2.0 | 5.0 | 0.00 | 0.00 | 0.00 | 71 | 1013.3 |
| 20260902130504 | 53 | 314 | 1.0 | 5.0 | 0.00 | 0.00 | 0.00 | 71 | 1013.7 |
| 20260902130004 | 53 | 318 | 0.0 | 1.0 | 0.00 | 0.00 | 0.00 | 71 | 1013.7 |
| 20260902125503 | 53 | 319 | 0.0 | 0.0 | 0.00 | 0.00 | 0.00 | 72 | 1013.8 |
| 20260902125004 | 53 | 321 | 0.0 | 1.0 | 0.00 | 0.00 | 0.00 | 72 | 1013.9 |
| 20260902124504 | 53 | 319 | 0.0 | 0.0 | 0.00 | 0.00 | 0.00 | 73 | 1013.9 |
| 20260902124004 | 53 | 322 | 0.0 | 0.0 | 0.00 | 0.00 | 0.00 | 75 | 1013.7 |
| 20260902123504 | 53 | 328 | 0.0 | 1.0 | 0.00 | 0.00 | 0.00 | 76 | 1013.7 |
| 20260902123004 | 53 | 319 | 0.0 | 0.0 | 0.00 | 0.00 | 0.00 | 77 | 1013.7 |
| 20260902122503 | 53 | 317 | 0.0 | 0.0 | 0.00 | 0.00 | 0.00 | 77 | 1013.6 |
| 20260902122004 | 53 | 317 | 0.0 | 1.0 | 0.00 | 0.00 | 0.00 | 77 | 1013.5 |
| 20260902121004 | 53 | 314 | 0.0 | 0.0 | 0.00 | 0.00 | 0.00 | 77 | 1013.5 |
| 20260902120504 | 53 | 318 | 0.0 | 1.0 | 0.00 | 0.00 | 0.00 | 77 | 1013.4 |
| 20260902120004 | 53 | 313 | 0.0 | 1.0 | 0.00 | 0.00 | 0.00 | 78 | 1013.5 |
| 20260902115504 | 53 | 314 | 0.0 | 1.0 | 0.00 | 0.00 | 0.00 | 78 | 1013.5 |
| 20260902115004 | 53 | 318 | 0.0 | 1.0 | 0.00 | 0.00 | 0.00 | 78 | 1013.5 |
| 20260902114504 | 53 | 310 | 0.0 | 1.0 | 0.00 | 0.00 | 0.00 | 78 | 1013.5 |
| 20260902113504 | 53 | 294 | 0.0 | 0.0 | 0.00 | 0.00 | 0.00 | 80 | 1013.5 |
| 20260902113004 | 53 | 305 | 0.0 | 0.0 | 0.00 | 0.00 | 0.00 | 80 | 1013.4 |
| 20260902112004 | 53 | 315 | 0.0 | 1.0 | 0.00 | 0.00 | 0.00 | 80 | 1013.3 |
| 20260902111504 | 53 | 319 | 0.0 | 1.0 | 0.00 | 0.00 | 0.00 | 81 | 1013.3 |
| 20260902111004 | 53 | 305 | 0.0 | 1.0 | 0.00 | 0.00 | 0.00 | 81 | 1013.3 |
| 20260902110504 | 53 | 311 | 0.0 | 1.0 | 0.00 | 0.00 | 0.00 | 80 | 1013.3 |
| 20260902110007 | 53 | 320 | 0.0 | 0.0 | 0.00 | 0.00 | 0.00 | 79 | 1013.3 |
| 20260902105504 | 53 | 316 | 0.0 | 0.0 | 0.00 | 0.00 | 0.00 | 80 | 1013.4 |
| 20260902105003 | 53 | 318 | 0.0 | 1.0 | 0.00 | 0.00 | 0.00 | 80 | 1013.3 |
| 20260902104504 | 52 | 310 | 0.0 | 1.0 | 0.00 | 0.00 | 0.00 | 80 | 1013.2 |
| 20260902104004 | 52 | 316 | 0.0 | 1.0 | 0.00 | 0.00 | 0.00 | 80 | 1013.1 |
| 20260902103004 | 52 | 317 | 0.0 | 1.0 | 0.00 | 0.00 | 0.00 | 79 | 1013.1 |
| 20260902102504 | 52 | 310 | 0.0 | 1.0 | 0.00 | 0.00 | 0.00 | 78 | 1013.1 |
| 20260902102004 | 53 | 304 | 0.0 | 1.0 | 0.00 | 0.00 | 0.00 | 78 | 1013.2 |
| 20260902101504 | 53 | 302 | 0.0 | 0.0 | 0.00 | 0.00 | 0.00 | 77 | 1013.2 |
| 20260902101005 | 53 | 318 | 0.0 | 1.0 | 0.00 | 0.00 | 0.00 | 77 | 1013.1 |
| 20260902100504 | 53 | 308 | 0.0 | 1.0 | 0.00 | 0.00 | 0.00 | 76 | 1013.2 |
| 20260902095504 | 54 | 309 | 0.0 | 1.0 | 0.00 | 0.00 | 0.00 | 75 | 1013.1 |
| 20260902095004 | 54 | 314 | 0.0 | 3.0 | 0.00 | 0.00 | 0.00 | 75 | 1013.2 |
| 20260902094504 | 54 | 310 | 0.0 | 1.0 | 0.00 | 0.00 | 0.00 | 73 | 1013.1 |
| 20260902094004 | 54 | 313 | 0.0 | 1.0 | 0.00 | 0.00 | 0.00 | 73 | 1013.1 |
| 20260902093504 | 54 | 319 | 0.0 | 0.0 | 0.00 | 0.00 | 0.00 | 72 | 1013.1 |
| 20260902093004 | 55 | 311 | 0.0 | 0.0 | 0.00 | 0.00 | 0.00 | 71 | 1013.2 |
| 20260902092503 | 55 | 307 | 0.0 | 0.0 | 0.00 | 0.00 | 0.00 | 69 | 1013.2 |
| 20260902092004 | 56 | 290 | 0.0 | 0.0 | 0.00 | 0.00 | 0.00 | 68 | 1013.2 |
| 20260902091503 | 57 | 287 | 0.0 | 0.0 | 0.00 | 0.00 | 0.00 | 68 | 1013.2 |
| 20260902090504 | 57 | 282 | 0.0 | 0.0 | 0.00 | 0.00 | 0.00 | 66 | 1013.2 |
| 20260902085503 | 58 | 281 | 0.0 | 0.0 | 0.00 | 0.00 | 0.00 | 66 | 1013.3 |
| 20260902084504 | 58 | 281 | 0.0 | 0.0 | 0.00 | 0.00 | 0.00 | 66 | 1013.4 |
| 20260902084004 | 58 | 281 | 0.0 | 0.0 | 0.00 | 0.00 | 0.00 | 66 | 1013.4 |
| 20260902083504 | 58 | 281 | 0.0 | 0.0 | 0.00 | 0.00 | 0.00 | 67 | 1013.4 |
| 20260902082504 | 58 | 281 | 0.0 | 0.0 | 0.00 | 0.00 | 0.00 | 67 | 1013.5 |
| 20260902082004 | 58 | 281 | 0.0 | 0.0 | 0.00 | 0.00 | 0.00 | 67 | 1013.7 |
| 20260902080504 | 58 | 281 | 0.0 | 0.0 | 0.00 | 0.00 | 0.00 | 68 | 1013.7 |
| 20260902080005 | 58 | 294 | 0.0 | 0.0 | 0.00 | 0.00 | 0.00 | 70 | 1013.6 |
| 20260902075004 | 58 | 294 | 0.0 | 0.0 | 0.00 | 0.00 | 0.00 | 70 | 1013.6 |
| 20260902074503 | 58 | 294 | 0.0 | 0.0 | 0.00 | 0.00 | 0.00 | 70 | 1013.7 |
| 20260902074004 | 58 | 294 | 0.0 | 0.0 | 0.00 | 0.00 | 0.00 | 71 | 1013.7 |
| 20260902073504 | 58 | 294 | 0.0 | 0.0 | 0.00 | 0.00 | 0.00 | 71 | 1013.6 |
| 20260902073004 | 58 | 294 | 0.0 | 0.0 | 0.00 | 0.00 | 0.00 | 72 | 1013.5 |
| 20260902072504 | 57 | 294 | 0.0 | 0.0 | 0.00 | 0.00 | 0.00 | 73 | 1013.4 |
| 20260902072004 | 57 | 294 | 0.0 | 0.0 | 0.00 | 0.00 | 0.00 | 71 | 1013.5 |
| 20260902071504 | 57 | 293 | 0.0 | 0.0 | 0.00 | 0.00 | 0.00 | 71 | 1013.6 |
| 20260902071004 | 57 | 293 | 0.0 | 0.0 | 0.00 | 0.00 | 0.00 | 72 | 1013.6 |
| 20260902070504 | 58 | 293 | 0.0 | 0.0 | 0.00 | 0.00 | 0.00 | 70 | 1013.6 |
| 20260902070004 | 58 | 157 | 0.0 | 0.0 | 0.00 | 0.00 | 0.00 | 70 | 1013.5 |
| 20260902065504 | 58 | 157 | 0.0 | 0.0 | 0.00 | 0.00 | 0.00 | 71 | 1013.6 |
| 20260902065003 | 58 | 157 | 0.0 | 0.0 | 0.00 | 0.00 | 0.00 | 70 | 1013.6 |
| 20260902064504 | 58 | 157 | 0.0 | 0.0 | 0.00 | 0.00 | 0.00 | 71 | 1013.6 |
| 20260902064004 | 57 | 157 | 0.0 | 0.0 | 0.00 | 0.00 | 0.00 | 71 | 1013.5 |
| 20260902063504 | 57 | 157 | 0.0 | 0.0 | 0.00 | 0.00 | 0.00 | 71 | 1013.6 |
| 20260902063004 | 57 | 157 | 0.0 | 0.0 | 0.00 | 0.00 | 0.00 | 70 | 1013.7 |
| 20260902062504 | 58 | 157 | 0.0 | 0.0 | 0.00 | 0.00 | 0.00 | 69 | 1013.7 |
| 20260902062004 | 58 | 157 | 0.0 | 0.0 | 0.00 | 0.00 | 0.00 | 70 | 1013.6 |
| 20260902061504 | 58 | 157 | 0.0 | 0.0 | 0.00 | 0.00 | 0.00 | 69 | 1013.7 |
| 20260902061004 | 58 | 158 | 0.0 | 0.0 | 0.00 | 0.00 | 0.00 | 69 | 1013.6 |
| 20260902060004 | 59 | 162 | 0.0 | 0.0 | 0.00 | 0.00 | 0.00 | 69 | 1013.7 |
| 20260902055504 | 58 | 167 | 0.0 | 0.0 | 0.00 | 0.00 | 0.00 | 69 | 1013.7 |
| 20260902054504 | 59 | 168 | 0.0 | 0.0 | 0.00 | 0.00 | 0.00 | 69 | 1013.7 |
| 20260902053004 | 59 | 168 | 0.0 | 0.0 | 0.00 | 0.00 | 0.00 | 69 | 1013.6 |
| 20260902051503 | 58 | 169 | 0.0 | 0.0 | 0.00 | 0.00 | 0.00 | 69 | 1013.8 |
| 20260902051004 | 58 | 169 | 0.0 | 0.0 | 0.00 | 0.00 | 0.00 | 68 | 1013.9 |
| 20260902050504 | 59 | 169 | 0.0 | 0.0 | 0.00 | 0.00 | 0.00 | 67 | 1013.9 |
| 20260902050007 | 59 | 169 | 0.0 | 0.0 | 0.00 | 0.00 | 0.00 | 67 | 1013.9 |
| 20260902045504 | 59 | 169 | 0.0 | 0.0 | 0.00 | 0.00 | 0.00 | 67 | 1013.8 |
| 20260902045003 | 59 | 169 | 0.0 | 0.0 | 0.00 | 0.00 | 0.00 | 67 | 1013.8 |
| 20260902044504 | 59 | 169 | 0.0 | 0.0 | 0.00 | 0.00 | 0.00 | 67 | 1013.8 |
| 20260902043503 | 60 | 169 | 0.0 | 0.0 | 0.00 | 0.00 | 0.00 | 64 | 1014.0 |
| 20260902043004 | 60 | 169 | 0.0 | 0.0 | 0.00 | 0.00 | 0.00 | 64 | 1014.0 |
| 20260902042504 | 60 | 169 | 0.0 | 0.0 | 0.00 | 0.00 | 0.00 | 64 | 1014.0 |
| 20260902042004 | 60 | 169 | 0.0 | 0.0 | 0.00 | 0.00 | 0.00 | 64 | 1014.0 |
| 20260902041504 | 60 | 169 | 0.0 | 0.0 | 0.00 | 0.00 | 0.00 | 64 | 1014.1 |
| 20260902041004 | 60 | 169 | 0.0 | 0.0 | 0.00 | 0.00 | 0.00 | 63 | 1014.2 |
| 20260902040504 | 61 | 169 | 0.0 | 0.0 | 0.00 | 0.00 | 0.00 | 63 | 1014.1 |
| 20260902040004 | 61 | 169 | 0.0 | 0.0 | 0.00 | 0.00 | 0.00 | 63 | 1014.1 |
| 20260902035503 | 60 | 169 | 0.0 | 0.0 | 0.00 | 0.00 | 0.00 | 63 | 1014.0 |
| 20260902035004 | 60 | 169 | 0.0 | 0.0 | 0.00 | 0.00 | 0.00 | 63 | 1014.1 |
| 20260902034503 | 61 | 157 | 0.0 | 0.0 | 0.00 | 0.00 | 0.00 | 63 | 1014.1 |
| 20260902034004 | 61 | 158 | 0.0 | 0.0 | 0.00 | 0.00 | 0.00 | 63 | 1014.0 |
| 20260902033504 | 61 | 159 | 0.0 | 1.0 | 0.00 | 0.00 | 0.00 | 62 | 1014.0 |
| 20260902032503 | 62 | 163 | 0.0 | 0.0 | 0.00 | 0.00 | 0.00 | 61 | 1013.8 |
| 20260902031504 | 63 | 159 | 0.0 | 0.0 | 0.00 | 0.00 | 0.00 | 59 | 1013.7 |
| 20260902030503 | 63 | 124 | 1.0 | 2.0 | 0.00 | 0.00 | 0.00 | 60 | 1013.4 |
| 20260902030004 | 63 | 124 | 1.0 | 3.0 | 0.00 | 0.00 | 0.00 | 59 | 1013.4 |
| 20260902025504 | 63 | 109 | 2.0 | 3.0 | 0.00 | 0.00 | 0.00 | 59 | 1013.1 |
| 20260902025004 | 64 | 100 | 1.0 | 3.0 | 0.00 | 0.00 | 0.00 | 58 | 1013.1 |
| 20260902024504 | 64 | 125 | 2.0 | 3.0 | 0.00 | 0.00 | 0.00 | 58 | 1013.4 |
| 20260902024004 | 64 | 107 | 1.0 | 3.0 | 0.00 | 0.00 | 0.00 | 57 | 1013.9 |
| 20260902023003 | 64 | 101 | 0.0 | 0.0 | 0.00 | 0.00 | 0.00 | 55 | 1014.1 |
| 20260902022004 | 65 | 117 | 0.0 | 0.0 | 0.00 | 0.00 | 0.00 | 53 | 1014.1 |
| 20260902021504 | 66 | 118 | 0.0 | 0.0 | 0.00 | 0.00 | 0.00 | 53 | 1014.0 |
| 20260902021004 | 66 | 116 | 0.0 | 0.0 | 0.00 | 0.00 | 0.00 | 52 | 1014.0 |
| 20260902020504 | 66 | 125 | 0.0 | 1.0 | 0.00 | 0.00 | 0.00 | 52 | 1014.0 |
| 20260902020004 | 66 | 133 | 0.0 | 0.0 | 0.00 | 0.00 | 0.00 | 52 | 1014.1 |
| 20260902015504 | 66 | 126 | 0.0 | 0.0 | 0.00 | 0.00 | 0.00 | 52 | 1014.1 |
| 20260902015004 | 66 | 123 | 0.0 | 0.0 | 0.00 | 0.00 | 0.00 | 51 | 1014.2 |
| 20260902014504 | 67 | 126 | 0.0 | 0.0 | 0.00 | 0.00 | 0.00 | 51 | 1014.2 |
| 20260902014005 | 67 | 105 | 0.0 | 0.0 | 0.00 | 0.00 | 0.00 | 51 | 1014.2 |
| 20260902013504 | 67 | 102 | 0.0 | 0.0 | 0.00 | 0.00 | 0.00 | 50 | 1014.2 |
| 20260902012504 | 67 | 121 | 0.0 | 2.0 | 0.00 | 0.00 | 0.00 | 50 | 1014.1 |
| 20260902011504 | 68 | 121 | 1.0 | 3.0 | 0.00 | 0.00 | 0.00 | 49 | 1014.1 |
| 20260902011004 | 68 | 119 | 1.0 | 3.0 | 0.00 | 0.00 | 0.00 | 49 | 1014.2 |
| 20260902010504 | 68 | 119 | 1.0 | 3.0 | 0.00 | 0.00 | 0.00 | 49 | 1014.3 |
| 20260902010004 | 68 | 120 | 1.0 | 3.0 | 0.00 | 0.00 | 0.00 | 49 | 1014.3 |
| 20260902005503 | 68 | 120 | 0.0 | 2.0 | 0.00 | 0.00 | 0.00 | 49 | 1014.4 |
| 20260902005003 | 68 | 115 | 1.0 | 3.0 | 0.00 | 0.00 | 0.00 | 49 | 1014.3 |
| 20260902004504 | 68 | 105 | 1.0 | 6.0 | 0.00 | 0.00 | 0.00 | 49 | 1014.4 |
| 20260902004004 | 67 | 120 | 2.0 | 5.0 | 0.00 | 0.00 | 0.00 | 49 | 1014.4 |
| 20260902003504 | 68 | 114 | 2.0 | 7.0 | 0.00 | 0.00 | 0.00 | 49 | 1014.5 |
| 20260902003003 | 67 | 129 | 2.0 | 3.0 | 0.00 | 0.00 | 0.00 | 50 | 1014.5 |
| 20260902001504 | 68 | 112 | 1.0 | 5.0 | 0.00 | 0.00 | 0.00 | 50 | 1014.7 |
| 20260902001003 | 68 | 90 | 1.0 | 3.0 | 0.00 | 0.00 | 0.00 | 50 | 1014.7 |
| 20260902000504 | 68 | 89 | 2.0 | 6.0 | 0.00 | 0.00 | 0.00 | 49 | 1014.9 |
| 20260902000004 | 70 | 78 | 0.0 | 2.0 | 0.00 | 0.00 | 0.00 | 47 | 1014.9 |
| 20260901235503 | 70 | 102 | 0.0 | 2.0 | 0.00 | 0.00 | 0.00 | 44 | 1014.9 |
| 20260901235004 | 70 | 118 | 1.0 | 3.0 | 0.00 | 0.00 | 0.00 | 44 | 1014.8 |
| 20260901234503 | 70 | 126 | 0.0 | 1.0 | 0.00 | 0.00 | 0.00 | 45 | 1014.5 |
| 20260901234004 | 70 | 121 | 0.0 | 1.0 | 0.00 | 0.00 | 0.00 | 45 | 1014.2 |
| 20260901233504 | 70 | 127 | 1.0 | 2.0 | 0.00 | 0.00 | 0.00 | 45 | 1014.2 |
| 20260901233004 | 70 | 144 | 0.0 | 3.0 | 0.00 | 0.00 | 0.00 | 46 | 1014.2 |
| 20260901232504 | 69 | 156 | 0.0 | 3.0 | 0.00 | 0.00 | 0.00 | 47 | 1014.1 |
| 20260901232003 | 69 | 158 | 1.0 | 3.0 | 0.00 | 0.00 | 0.00 | 49 | 1013.9 |
| 20260901231503 | 69 | 143 | 1.0 | 3.0 | 0.00 | 0.00 | 0.00 | 50 | 1014.0 |
| 20260901225504 | 68 | 153 | 0.0 | 2.0 | 0.00 | 0.00 | 0.00 | 53 | 1014.0 |
| 20260901225004 | 68 | 158 | 0.0 | 0.0 | 0.00 | 0.00 | 0.00 | 53 | 1013.9 |
| 20260901224004 | 68 | 209 | 0.0 | 1.0 | 0.00 | 0.00 | 0.00 | 52 | 1014.2 |
| 20260901223503 | 68 | 182 | 0.0 | 2.0 | 0.00 | 0.00 | 0.00 | 51 | 1014.3 |
| 20260901223004 | 68 | 199 | 0.0 | 2.0 | 0.00 | 0.00 | 0.00 | 51 | 1014.7 |
| 20260901222504 | 68 | 212 | 1.0 | 3.0 | 0.00 | 0.00 | 0.00 | 51 | 1014.8 |
| 20260901221504 | 67 | 211 | 2.0 | 3.0 | 0.00 | 0.00 | 0.00 | 54 | 1015.3 |
| 20260901221003 | 66 | 223 | 1.0 | 3.0 | 0.00 | 0.00 | 0.00 | 56 | 1015.4 |
| 20260901220503 | 66 | 226 | 1.0 | 3.0 | 0.00 | 0.00 | 0.00 | 56 | 1015.5 |
| 20260901215504 | 67 | 216 | 0.0 | 2.0 | 0.00 | 0.00 | 0.00 | 54 | 1015.7 |
| 20260901215004 | 68 | 165 | 0.0 | 1.0 | 0.00 | 0.00 | 0.00 | 52 | 1015.8 |
| 20260901214504 | 68 | 175 | 0.0 | 2.0 | 0.00 | 0.00 | 0.00 | 51 | 1016.1 |
| 20260901214004 | 68 | 222 | 0.0 | 3.0 | 0.00 | 0.00 | 0.00 | 50 | 1016.1 |
| 20260901213503 | 67 | 220 | 0.0 | 3.0 | 0.00 | 0.00 | 0.00 | 51 | 1016.1 |
| 20260901213004 | 67 | 214 | 1.0 | 3.0 | 0.00 | 0.00 | 0.00 | 53 | 1016.2 |
| 20260901212004 | 67 | 218 | 2.0 | 3.0 | 0.00 | 0.00 | 0.00 | 51 | 1016.5 |
| 20260901211504 | 68 | 227 | 2.0 | 5.0 | 0.00 | 0.00 | 0.00 | 48 | 1016.4 |
| 20260901210504 | 68 | 225 | 3.0 | 7.0 | 0.00 | 0.00 | 0.00 | 45 | 1016.6 |
| 20260901210004 | 68 | 237 | 3.0 | 9.0 | 0.00 | 0.00 | 0.00 | 45 | 1016.4 |
| 20260901205504 | 69 | 238 | 3.0 | 10.0 | 0.00 | 0.00 | 0.00 | 43 | 1016.4 |
| 20260901204504 | 72 | 230 | 4.0 | 13.0 | 0.00 | 0.00 | 0.00 | 34 | 1016.5 |
| 20260901204004 | 73 | 231 | 3.0 | 9.0 | 0.00 | 0.00 | 0.00 | 31 | 1016.3 |
| 20260901203504 | 74 | 222 | 5.0 | 12.0 | 0.00 | 0.00 | 0.00 | 30 | 1016.2 |
| 20260901203004 | 75 | 222 | 3.0 | 9.0 | 0.00 | 0.00 | 0.00 | 27 | 1016.1 |
| 20260901202504 | 75 | 197 | 1.0 | 5.0 | 0.00 | 0.00 | 0.00 | 28 | 1015.9 |